Starlink 32027

operational
NORAD ID: 60143 Int'l Des: 2024-120 Owner: SPXS Country: US Constellation: starlink
LEOCIRCULAR

About Starlink 32027

Description loading...

Live Position

Loading 3D Globe...

Upcoming Passes

Altitude History

Altitude vs Time

uPlot chart will show altitude changes over time

Two-Line Element Set

1 60143U 24120J 25352.26334259 -.00000695 00000-0 -11344-4 0 9993
2 60143 53.1625 337.8007 0001328 88.8798 271.2355 15.30196921 83999
Epoch: Dec 18, 2025 • Age: 8 hours

Current Status

Altitude 476.0 km
Velocity 7.63 km/s
Sub-Earth Point 27.05°N, 56.55°E
Launch Date Jun 27, 2024
Age 1.4 years
Type internet

Technical Details

Classification Payload
Mass 730.00 kg
Dry Mass 700.00 kg
Total Mass 730.00 kg
Length 0.30 m
Diameter 4.10 m
Span 29.00 m
Shape Box + pan
Manufacturer SPXS
Bus Type Starlink V2M
Phase Status In Orbit
Owner/State SPXS/US

Large Constellations

Loading constellations...